[[{"header":{"parameterUnit":"m.s-1","parameterCategory":1,"la1":30.2991,"la2":30.254,"lo1":-89.0895,"lo2":-89.0444,"dy":0.0017,"dx":0.0017,"nx":28,"ny":28,"refTime":"2024-06-09T09:00:00:Z","depth":0,"parameterNumber":2,"parameterNumberName":"U-component_of_WINDS"},"data":[0,0,0,0,0,0,0,0,0,0,0,0,0,0,0,0,0,0,0,0,0,0,0,0,0,0,0,0,0,0,0,0,0,0,0,0,0,0,0,0,0,0,0,0,0,0,0,0,0,0,0,0,0,0,0,0,0,0,1.4742,1.4744,0,1.4907,1.4909,1.4911,1.4972,1.4972,1.4971,1.4971,1.5138,1.5143,1.5148,0,0,0,0,0,0,0,0,0,0,0,0,0,1.4477,1.4482,1.4742,1.4744,1.4746,1.4907,1.4909,1.4911,1.4973,1.4972,1.4971,1.4971,1.5137,1.5142,1.5148,0,0,0,0,0,0,0,0,0,0,0,0,0,1.4612,1.4483,1.4741,1.4796,1.4802,1.4906,1.4909,1.4912,1.4973,1.4972,1.4971,1.497,1.5135,1.5142,1.5149,1.521,0,0,1.5172,1.5175,0,0,0,0,0,0,0,0,1.4604,1.4622,1.4786,1.4792,1.48,1.4918,1.4877,1.5012,1.4973,1.4908,1.4971,1.497,1.5065,1.5078,1.5111,1.5218,1.5225,1.5172,1.5177,1.518,1.5182,0,0,0,0,0,0,0,1.4595,1.4615,1.4807,1.4788,1.4797,1.4811,1.483,1.4903,1.4989,1.4914,1.4918,1.4937,1.5069,1.5104,1.5115,1.5227,1.5172,1.5179,1.5183,1.5186,1.5391,1.5392,0,0,0,0,0,0,1.4577,1.4607,1.4802,1.4812,1.4698,1.4817,1.4837,1.4881,1.4988,1.5004,1.4938,1.494,1.5092,1.5107,1.5122,1.52,1.518,1.5187,1.5191,1.539,1.5392,1.5393,0,0,0,0,0,0,1.4571,1.4594,1.4795,1.4711,1.4738,1.4822,1.4871,1.4885,1.4919,1.5007,1.5022,1.4957,1.5092,1.5111,1.5187,1.5206,1.519,1.5197,1.5389,1.5391,1.5392,1.5356,0,0,0,0,0,0,1.4563,1.4591,1.4616,1.4711,1.4742,1.4859,1.4872,1.4888,1.4932,1.4936,1.5029,1.5044,1.5092,1.5176,1.5195,1.5216,1.5203,1.5388,1.539,1.5392,1.5356,1.5356,1.5356,0,0,0,0,0,1.4553,1.4598,1.4617,1.464,1.4774,1.486,1.4877,1.4933,1.4933,1.4958,1.5014,1.5041,1.5201,1.5183,1.5205,1.5229,1.5387,1.5389,1.5392,1.5355,1.5356,1.5356,0,0,0,0,0,0,1.4503,1.4612,1.4633,1.4711,1.4775,1.487,1.4903,1.4931,1.4997,1.4998,1.5063,1.5084,1.5154,1.5199,1.5178,1.5293,1.5296,1.5302,1.5261,1.5262,1.5262,1.5249,1.5209,0,0,0,0,0,1.45,1.4561,1.4653,1.4713,1.4744,1.4818,1.4857,1.4894,1.4964,1.4991,1.5053,1.5119,1.5184,1.5225,1.529,1.5362,1.5383,1.5389,1.5389,1.5389,1.5394,1.5435,1.5438,1.54,1.54,1.54,0,0,1.4496,1.4564,1.4598,1.4704,1.4759,1.482,1.4841,1.4904,1.495,1.5001,1.5077,1.5124,1.5202,1.5276,1.5312,1.5316,1.5409,1.5392,1.5391,1.5396,1.5437,1.5441,1.5444,1.5402,1.5402,1.5401,0,0,1.452,1.4578,1.4633,1.4688,1.477,1.4819,1.4832,1.4923,1.4956,1.5033,1.5073,1.5128,1.5239,1.5292,1.5334,1.5378,1.5404,1.5397,1.5398,1.5436,1.5439,1.5442,1.5457,1.5462,1.5402,1.5401,1.5401,0,1.4505,1.4599,1.4658,1.472,1.4765,1.4814,1.4871,1.492,1.5019,1.5049,1.5052,1.5192,1.5248,1.5335,1.5346,1.5378,1.5394,1.5386,1.5434,1.5438,1.5442,1.5457,1.5462,1.54,1.54,1.54,1.54,0,1.4575,1.464,1.4674,1.4769,1.4819,1.4877,1.4944,1.4987,1.5019,1.5067,1.5145,1.5214,1.5293,1.5316,1.5349,1.5408,1.5408,1.5422,1.5426,1.5443,1.5458,1.5464,1.5398,1.5398,1.5399,1.5399,0,0,1.4571,1.4699,1.471,1.4754,1.4848,1.4899,1.4959,1.5038,1.5072,1.5139,1.519,1.5283,1.5296,1.5344,1.5383,1.5417,1.5446,1.5427,1.543,1.5427,1.5515,1.5503,1.5509,1.5464,1.5466,1.5467,1.5508,0,1.4607,1.4718,1.4773,1.486,1.4919,1.4968,1.502,1.5083,1.5129,1.5186,1.5237,1.5302,1.5315,1.5344,1.538,1.5435,1.5464,1.5433,1.5512,1.5514,1.5491,1.5517,1.5505,1.5541,1.5514,1.5515,1.5516,0,1.4664,1.4731,1.4823,1.4911,1.4938,1.4984,1.506,1.5114,1.5186,1.5217,1.527,1.5308,1.5372,1.5372,1.5461,1.5438,1.5474,1.5506,1.5509,1.5518,1.5516,1.5526,1.5554,1.5558,1.5526,1.5525,1.5525,0,1.4651,1.4764,1.4834,1.487,1.4974,1.5005,1.5049,1.5121,1.5164,1.523,1.5259,1.5331,1.5371,1.5425,1.5481,1.5476,1.5565,1.5569,1.5592,1.559,1.5608,1.5606,1.5641,1.5632,1.5632,1.5632,1.5631,0,1.4685,1.4739,1.483,1.4873,1.4935,1.4997,1.5057,1.5105,1.5168,1.5221,1.5267,1.5315,1.5386,1.5443,1.5487,1.5554,1.5571,1.5598,1.5609,1.5594,1.559,1.5618,1.5616,1.5633,1.5633,1.5632,1.5632,0,1.4681,1.4744,1.4823,1.4915,1.4939,1.4981,1.5059,1.5102,1.5151,1.5217,1.5236,1.5312,1.5381,1.5442,1.5534,1.5564,1.5632,1.5646,1.5607,1.5613,1.5632,1.5629,1.5685,1.5696,1.5679,1.5679,1.5679,0,1.4698,1.4741,1.4838,1.4877,1.4921,1.4983,1.5027,1.509,1.5134,1.522,1.5252,1.5325,1.5386,1.5494,1.5557,1.5627,1.5643,1.5658,1.5654,1.5637,1.5643,1.5639,1.5644,1.5657,1.5657,1.5657,1.5657,0,1.4722,1.4751,1.4814,1.4888,1.494,1.5001,1.5063,1.5092,1.5166,1.5213,1.5285,1.5332,1.5426,1.5497,1.5574,1.5619,1.565,1.5658,1.5667,1.5651,1.5627,1.564,1.5606,1.5656,1.5656,1.5656,1.5656,1.5656,1.4729,1.477,1.4844,1.4912,1.4966,1.5023,1.5068,1.5122,1.5183,1.5265,1.5298,1.537,1.5441,1.5548,1.5593,1.565,1.5656,1.5668,1.5672,1.5674,1.5671,1.5618,1.5664,1.5664,1.5664,1.5664,1.5665,0,1.4755,1.4805,1.4868,1.4953,1.5007,1.5032,1.5102,1.5145,1.5209,1.5272,1.5332,1.5414,1.5483,1.5551,1.5624,1.5657,1.5672,1.5673,1.5671,1.5681,1.5662,1.5647,1.5659,1.5659,1.5659,1.5659,1.5659,1.5659,1.4775,1.4844,1.4882,1.4978,1.5028,1.51,1.5138,1.519,1.5242,1.5331,1.5389,1.5434,1.5499,1.5577,1.5641,1.5659,1.5684,1.5681,1.5702,1.5683,1.5683,1.5682,1.5668,1.5685,1.5685,1.5717,1.5717,1.5718]},{"header":{"parameterUnit":"m.s-1","parameterCategory":1,"la1":30.2991,"la2":30.254,"lo1":-89.0895,"lo2":-89.0444,"dy":0.0017,"dx":0.0017,"nx":28,"ny":28,"refTime":"2024-06-09T09:00:00:Z","depth":0,"parameterNumber":3,"parameterNumberName":"V-component_of_WINDS"},"data":[0,0,0,0,0,0,0,0,0,0,0,0,0,0,0,0,0,0,0,0,0,0,0,0,0,0,0,0,0,0,0,0,0,0,0,0,0,0,0,0,0,0,0,0,0,0,0,0,0,0,0,0,0,0,0,0,0,0,4.5613,4.5613,0,4.5618,4.5618,4.5618,4.5573,4.5572,4.5571,4.5569,4.5574,4.5575,4.5577,0,0,0,0,0,0,0,0,0,0,0,0,0,4.5562,4.5564,4.5613,4.5613,4.5613,4.5618,4.5618,4.5618,4.5573,4.5572,4.557,4.5569,4.5574,4.5575,4.5577,0,0,0,0,0,0,0,0,0,0,0,0,0,4.5578,4.5564,4.5613,4.5591,4.5589,4.5618,4.5618,4.5618,4.5574,4.5572,4.557,4.5568,4.5573,4.5575,4.5577,4.5626,0,0,4.5583,4.5584,0,0,0,0,0,0,0,0,4.5577,4.558,4.5594,4.5593,4.5591,4.5593,4.5602,4.5621,4.5574,4.5579,4.5569,4.5567,4.5582,4.5583,4.5588,4.5627,4.5627,4.5583,4.5584,4.5585,4.5585,0,0,0,0,0,0,0,4.5576,4.5579,4.5615,4.5594,4.5592,4.5581,4.5581,4.5605,4.5591,4.5579,4.5576,4.5577,4.558,4.5586,4.5588,4.5627,4.5583,4.5585,4.5586,4.5587,4.5706,4.5708,0,0,0,0,0,0,4.5578,4.5578,4.5615,4.5615,4.5579,4.5583,4.5583,4.5594,4.5591,4.5588,4.5578,4.5575,4.5584,4.5586,4.5588,4.5645,4.5585,4.5587,4.5588,4.5704,4.5706,4.5708,0,0,0,0,0,0,4.5577,4.5581,4.5614,4.5596,4.5599,4.5586,4.5598,4.5595,4.5601,4.559,4.5587,4.5587,4.5582,4.5585,4.5617,4.5644,4.5588,4.5589,4.5701,4.5704,4.5707,4.576,0,0,0,0,0,0,4.5576,4.5581,4.56,4.5597,4.56,4.5644,4.56,4.5597,4.5604,4.56,4.5598,4.5596,4.5581,4.5614,4.5619,4.5646,4.5591,4.5699,4.5703,4.5706,4.5756,4.5765,4.5772,0,0,0,0,0,4.5574,4.5615,4.5602,4.5606,4.5624,4.5646,4.5648,4.563,4.5607,4.5626,4.5619,4.5596,4.5641,4.5618,4.5623,4.5651,4.5697,4.5702,4.5706,4.5752,4.5763,4.5772,0,0,0,0,0,0,4.5622,4.5614,4.5599,4.564,4.5644,4.5638,4.5661,4.5642,4.5653,4.5648,4.5626,4.5626,4.5661,4.5659,4.5634,4.5698,4.5665,4.567,4.5698,4.5708,4.5716,4.5716,4.5592,0,0,0,0,0,4.5638,4.5657,4.5648,4.5685,4.5688,4.5675,4.5683,4.567,4.5673,4.5674,4.5669,4.5673,4.5688,4.5698,4.5711,4.5756,4.5754,4.5777,4.5785,4.5792,4.5797,4.582,4.583,4.5723,4.5723,4.5723,0,0,4.567,4.5668,4.5681,4.5695,4.5696,4.5716,4.5676,4.5699,4.5713,4.5677,4.5707,4.5704,4.5706,4.5745,4.5761,4.5744,4.5826,4.5798,4.5803,4.5805,4.5826,4.5836,4.5845,4.5726,4.5726,4.5725,0,0,4.5738,4.5739,4.5769,4.5772,4.5774,4.5765,4.5772,4.5769,4.5766,4.5795,4.5769,4.5785,4.5812,4.5814,4.5819,4.5888,4.5867,4.5893,4.5935,4.5958,4.5966,4.5973,4.5997,4.6006,4.5898,4.5898,4.5898,0,4.5778,4.5806,4.5787,4.5812,4.5818,4.5787,4.5818,4.5821,4.5828,4.5833,4.5813,4.5845,4.5845,4.5883,4.59,4.5905,4.5912,4.5893,4.5966,4.5974,4.598,4.6003,4.6012,4.5901,4.5901,4.5901,4.59,0,4.5854,4.5875,4.5899,4.5906,4.5916,4.5943,4.5928,4.594,4.5925,4.5918,4.5948,4.5947,4.5959,4.5967,4.5953,4.6003,4.5992,4.597,4.5936,4.5994,4.6015,4.6023,4.5906,4.5905,4.5904,4.5903,0,0,4.5953,4.595,4.5959,4.5962,4.5962,4.5977,4.6003,4.6015,4.6025,4.6031,4.6051,4.6074,4.6054,4.6059,4.6045,4.6065,4.6119,4.604,4.604,4.6055,4.6174,4.619,4.6201,4.6106,4.6107,4.6108,4.6173,0,4.6019,4.6063,4.6047,4.6092,4.611,4.6081,4.6103,4.6105,4.6099,4.6113,4.6106,4.6122,4.6094,4.6097,4.6116,4.6109,4.6143,4.6104,4.6124,4.6125,4.6124,4.6212,4.6229,4.6291,4.6182,4.6183,4.6184,0,4.6103,4.6112,4.6158,4.6155,4.6162,4.6183,4.6192,4.6206,4.6208,4.6202,4.6208,4.619,4.6214,4.618,4.6214,4.6188,4.6195,4.6193,4.6195,4.6195,4.6158,4.6214,4.631,4.6319,4.6197,4.6196,4.6195,0,4.6169,4.6193,4.6224,4.6227,4.6225,4.6239,4.6239,4.6239,4.6247,4.6255,4.626,4.6271,4.6277,4.6286,4.6271,4.6248,4.6306,4.6271,4.6301,4.6302,4.6315,4.6314,4.6412,4.632,4.632,4.632,4.632,0,4.6245,4.6274,4.6254,4.6273,4.6305,4.6286,4.6318,4.6314,4.6315,4.6332,4.6307,4.6324,4.6304,4.6318,4.6307,4.6336,4.6339,4.6334,4.6331,4.6336,4.6337,4.634,4.6335,4.6322,4.6322,4.6321,4.6321,0,4.6325,4.6312,4.6344,4.6339,4.6338,4.6362,4.6357,4.6374,4.6366,4.6388,4.6392,4.638,4.6396,4.6382,4.6397,4.639,4.6428,4.6419,4.6427,4.6425,4.6456,4.6453,4.6559,4.6572,4.6472,4.6473,4.6474,0,4.6374,4.6396,4.6393,4.6403,4.6404,4.642,4.6428,4.641,4.6419,4.6423,4.644,4.6454,4.6464,4.6491,4.6483,4.6494,4.6485,4.6521,4.6486,4.6491,4.6485,4.6483,4.6485,4.6528,4.6529,4.653,4.6531,0,4.6461,4.6454,4.6467,4.6477,4.6487,4.6495,4.65,4.651,4.6491,4.6503,4.6519,4.6527,4.6543,4.6557,4.6566,4.6565,4.6545,4.6542,4.655,4.6555,4.6559,4.6557,4.6446,4.654,4.6539,4.6538,4.6538,4.6537,4.6527,4.6545,4.6545,4.656,4.6562,4.6568,4.6583,4.6577,4.659,4.6602,4.659,4.661,4.6611,4.6621,4.6622,4.6637,4.6622,4.6633,4.6636,4.6638,4.6643,4.6557,4.6639,4.6638,4.6638,4.6638,4.6638,0,4.6613,4.6611,4.6625,4.6634,4.6645,4.6626,4.663,4.6641,4.6659,4.6662,4.6672,4.669,4.6704,4.6697,4.6708,4.6722,4.6713,4.6725,4.6724,4.6724,4.6656,4.6648,4.6732,4.6732,4.6732,4.6732,4.6732,4.6732,4.6659,4.6688,4.6681,4.6711,4.6709,4.6728,4.6732,4.6737,4.6739,4.6761,4.6772,4.6767,4.6766,4.6777,4.6789,4.6786,4.6791,4.6807,4.6801,4.6738,4.6729,4.672,4.6712,4.6808,4.6809,4.6868,4.6868,4.6869]}]]